| time (UTC) | temp C | wind direction | speed KPH | gust KPH | rain 1hr cm | rain 24hr cm | rain mn cm | humidity % | barometer mb |
| 20260509053017 | 11 | 0.0 | 3.2 | 0.00 | 0.00 | 0.00 | 77 | 1014.7 | |
| 20260509052037 | 11 | 0.0 | 0.0 | 0.00 | 0.00 | 0.00 | 78 | 1014.6 | |
| 20260509051017 | 11 | 0.0 | 0.0 | 0.00 | 0.00 | 0.00 | 78 | 1014.5 | |
| 20260509050037 | 11 | 0.0 | 0.0 | 0.00 | 0.00 | 0.00 | 77 | 1014.5 | |
| 20260509045017 | 12 | 0.0 | 0.0 | 0.00 | 0.00 | 0.00 | 75 | 1014.3 | |
| 20260509044017 | 12 | 0.0 | 0.0 | 0.00 | 0.00 | 0.00 | 73 | 1014.4 | |
| 20260509043057 | 12 | 0.0 | 0.0 | 0.00 | 0.00 | 0.00 | 73 | 1014.4 | |
| 20260509042017 | 13 | 0.0 | 0.0 | 0.00 | 0.00 | 0.00 | 70 | 1014.5 | |
| 20260509041017 | 13 | 0.0 | 0.0 | 0.00 | 0.00 | 0.00 | 68 | 1014.5 | |
| 20260509040057 | 14 | 0.0 | 0.0 | 0.00 | 0.00 | 0.00 | 64 | 1014.5 | |
| 20260509035017 | 15 | 0.0 | 1.6 | 0.00 | 0.00 | 0.00 | 61 | 1014.6 | |
| 20260509034016 | 16 | 0.0 | 1.6 | 0.00 | 0.00 | 0.00 | 59 | 1014.8 | |
| 20260509033017 | 16 | 0.0 | 3.2 | 0.00 | 0.00 | 0.00 | 57 | 1014.7 | |
| 20260509032036 | 16 | 0.0 | 0.0 | 0.00 | 0.00 | 0.00 | 56 | 1015.0 | |
| 20260509031017 | 16 | 0.0 | 3.2 | 0.00 | 0.00 | 0.00 | 55 | 1014.9 | |
| 20260509030016 | 16 | 0.0 | 3.2 | 0.00 | 0.00 | 0.00 | 55 | 1014.8 | |
| 20260509025016 | 16 | 0.0 | 3.2 | 0.00 | 0.00 | 0.00 | 53 | 1014.9 | |
| 20260509024017 | 16 | 0.0 | 4.8 | 0.00 | 0.00 | 0.00 | 53 | 1014.9 | |
| 20260509023016 | 16 | 0.0 | 3.2 | 0.00 | 0.00 | 0.00 | 52 | 1014.9 | |
| 20260509022017 | 16 | 0.0 | 4.8 | 0.00 | 0.00 | 0.00 | 51 | 1014.8 | |
| 20260509021016 | 16 | 0.0 | 3.2 | 0.00 | 0.00 | 0.00 | 51 | 1014.9 | |
| 20260509020016 | 17 | 0.0 | 3.2 | 0.00 | 0.00 | 0.00 | 50 | 1014.7 | |
| 20260509015016 | 17 | 0.0 | 1.6 | 0.00 | 0.00 | 0.00 | 49 | 1014.6 | |
| 20260509014016 | 17 | 0.0 | 3.2 | 0.00 | 0.00 | 0.00 | 49 | 1014.6 | |
| 20260509013036 | 17 | 0.0 | 3.2 | 0.00 | 0.00 | 0.00 | 48 | 1014.4 | |
| 20260509012057 | 17 | 0.0 | 1.6 | 0.00 | 0.00 | 0.00 | 50 | 1014.4 | |
| 20260509011016 | 17 | 0.0 | 3.2 | 0.00 | 0.00 | 0.00 | 47 | 1014.3 | |
| 20260509010016 | 18 | 0.0 | 3.2 | 0.00 | 0.00 | 0.00 | 46 | 1014.2 | |
| 20260509005016 | 18 | 0.0 | 4.8 | 0.00 | 0.00 | 0.00 | 46 | 1014.2 | |
| 20260509004017 | 18 | 0.0 | 0.0 | 0.00 | 0.00 | 0.00 | 45 | 1014.3 | |
| 20260509003016 | 18 | 0.0 | 4.8 | 0.00 | 0.00 | 0.00 | 44 | 1014.2 | |
| 20260509002017 | 19 | 0.0 | 3.2 | 0.00 | 0.00 | 0.00 | 44 | 1014.1 | |
| 20260509001016 | 19 | 0.0 | 4.8 | 0.00 | 0.00 | 0.00 | 44 | 1014.1 | |
| 20260509000016 | 20 | 293 | 1.6 | 8.0 | 0.00 | 0.00 | 0.00 | 43 | 1014.0 |
| 20260508235016 | 20 | 0.0 | 3.2 | 0.00 | 0.00 | 0.00 | 43 | 1013.9 | |
| 20260508234016 | 20 | 270 | 1.6 | 8.0 | 0.00 | 0.00 | 0.00 | 41 | 1013.7 |
| 20260508233016 | 21 | 293 | 1.6 | 9.7 | 0.00 | 0.00 | 0.00 | 40 | 1013.6 |
| 20260508232016 | 21 | 270 | 1.6 | 6.4 | 0.00 | 0.00 | 0.00 | 39 | 1013.5 |
| 20260508231016 | 21 | 68 | 1.6 | 9.7 | 0.00 | 0.00 | 0.00 | 38 | 1013.5 |
| 20260508230016 | 21 | 68 | 1.6 | 6.4 | 0.00 | 0.00 | 0.00 | 38 | 1013.5 |
| 20260508225016 | 21 | 293 | 1.6 | 4.8 | 0.00 | 0.00 | 0.00 | 38 | 1013.5 |
| 20260508224036 | 22 | 68 | 3.2 | 8.0 | 0.00 | 0.00 | 0.00 | 37 | 1013.5 |
| 20260508223016 | 22 | 270 | 1.6 | 6.4 | 0.00 | 0.00 | 0.00 | 37 | 1013.5 |
| 20260508222016 | 22 | 293 | 3.2 | 11.3 | 0.00 | 0.00 | 0.00 | 37 | 1013.6 |
| 20260508221016 | 22 | 293 | 1.6 | 4.8 | 0.00 | 0.00 | 0.00 | 37 | 1013.7 |
| 20260508220017 | 22 | 293 | 3.2 | 12.9 | 0.00 | 0.00 | 0.00 | 36 | 1013.8 |
| 20260508215016 | 23 | 293 | 3.2 | 14.5 | 0.00 | 0.00 | 0.00 | 35 | 1013.8 |
| 20260508214056 | 23 | 270 | 3.2 | 11.3 | 0.00 | 0.00 | 0.00 | 35 | 1013.8 |
| 20260508213016 | 23 | 270 | 1.6 | 8.0 | 0.00 | 0.00 | 0.00 | 36 | 1013.8 |
| 20260508212016 | 23 | 270 | 4.8 | 14.5 | 0.00 | 0.00 | 0.00 | 35 | 1013.7 |
| 20260508211016 | 23 | 270 | 3.2 | 11.3 | 0.00 | 0.00 | 0.00 | 36 | 1013.8 |
| 20260508210016 | 23 | 90 | 1.6 | 6.4 | 0.00 | 0.00 | 0.00 | 35 | 1013.9 |
| 20260508205016 | 23 | 270 | 3.2 | 8.0 | 0.00 | 0.00 | 0.00 | 35 | 1013.9 |
| 20260508204057 | 23 | 315 | 3.2 | 9.7 | 0.00 | 0.00 | 0.00 | 36 | 1013.9 |
| 20260508203016 | 23 | 270 | 3.2 | 11.3 | 0.00 | 0.03 | 0.00 | 36 | 1014.1 |
| 20260508202016 | 23 | 68 | 3.2 | 8.0 | 0.00 | 0.05 | 0.00 | 35 | 1014.2 |
| 20260508201016 | 22 | 293 | 3.2 | 11.3 | 0.00 | 0.05 | 0.00 | 35 | 1014.2 |
| 20260508200016 | 23 | 270 | 3.2 | 17.7 | 0.00 | 0.08 | 0.00 | 37 | 1014.4 |
| 20260508195036 | 22 | 270 | 3.2 | 11.3 | 0.00 | 0.15 | 0.00 | 36 | 1014.5 |
| 20260508194016 | 22 | 225 | 1.6 | 6.4 | 0.00 | 0.15 | 0.00 | 38 | 1014.6 |
| 20260508193137 | 22 | 270 | 3.2 | 8.0 | 0.00 | 0.15 | 0.00 | 38 | 1014.8 |
| 20260508192016 | 22 | 270 | 3.2 | 11.3 | 0.00 | 0.18 | 0.00 | 38 | 1015.0 |
| 20260508191016 | 22 | 68 | 1.6 | 8.0 | 0.00 | 0.18 | 0.00 | 38 | 1015.2 |
| 20260508190016 | 22 | 90 | 3.2 | 9.7 | 0.00 | 0.18 | 0.00 | 38 | 1015.2 |
| 20260508185016 | 22 | 270 | 1.6 | 8.0 | 0.00 | 0.18 | 0.00 | 38 | 1015.3 |
| 20260508184016 | 22 | 293 | 4.8 | 12.9 | 0.00 | 0.18 | 0.00 | 39 | 1015.4 |
| 20260508183016 | 22 | 90 | 1.6 | 4.8 | 0.00 | 0.18 | 0.00 | 40 | 1015.6 |
| 20260508182016 | 22 | 270 | 3.2 | 9.7 | 0.00 | 0.18 | 0.00 | 38 | 1015.7 |
| 20260508181036 | 22 | 270 | 1.6 | 8.0 | 0.00 | 0.18 | 0.00 | 39 | 1015.9 |
| 20260508180016 | 22 | 90 | 1.6 | 3.2 | 0.00 | 0.18 | 0.00 | 38 | 1016.0 |
| 20260508175016 | 22 | 68 | 3.2 | 9.7 | 0.00 | 0.18 | 0.00 | 38 | 1016.1 |
| 20260508174016 | 22 | 338 | 1.6 | 4.8 | 0.00 | 0.18 | 0.00 | 38 | 1016.2 |
| 20260508173016 | 21 | 293 | 1.6 | 6.4 | 0.00 | 0.18 | 0.00 | 41 | 1016.2 |
| 20260508172016 | 21 | 68 | 1.6 | 6.4 | 0.00 | 0.18 | 0.00 | 40 | 1016.5 |
| 20260508171016 | 21 | 0 | 1.6 | 12.9 | 0.00 | 0.18 | 0.00 | 40 | 1016.7 |
| 20260508170016 | 21 | 270 | 1.6 | 4.8 | 0.00 | 0.18 | 0.00 | 41 | 1016.9 |
| 20260508165016 | 20 | 90 | 3.2 | 8.0 | 0.00 | 0.18 | 0.00 | 40 | 1017.0 |
| 20260508164036 | 21 | 270 | 3.2 | 11.3 | 0.00 | 0.18 | 0.00 | 42 | 1017.2 |
| 20260508163017 | 21 | 0.0 | 1.6 | 0.00 | 0.18 | 0.00 | 46 | 1017.4 | |
| 20260508162016 | 21 | 270 | 1.6 | 4.8 | 0.00 | 0.18 | 0.00 | 40 | 1017.6 |
| 20260508161016 | 21 | 90 | 1.6 | 4.8 | 0.00 | 0.18 | 0.00 | 40 | 1017.7 |
| 20260508160016 | 20 | 68 | 1.6 | 6.4 | 0.00 | 0.18 | 0.00 | 42 | 1017.7 |
| 20260508155015 | 21 | 293 | 1.6 | 3.2 | 0.00 | 0.18 | 0.00 | 42 | 1017.9 |
| 20260508154016 | 20 | 90 | 1.6 | 6.4 | 0.00 | 0.18 | 0.00 | 41 | 1017.9 |
| 20260508153016 | 20 | 0.0 | 0.0 | 0.00 | 0.20 | 0.00 | 44 | 1018.0 | |
| 20260508152016 | 19 | 0.0 | 1.6 | 0.00 | 0.20 | 0.00 | 43 | 1018.1 | |
| 20260508151016 | 19 | 225 | 1.6 | 4.8 | 0.00 | 0.20 | 0.00 | 41 | 1018.3 |
| 20260508150016 | 19 | 0.0 | 1.6 | 0.00 | 0.20 | 0.00 | 46 | 1018.3 | |
| 20260508145016 | 18 | 0.0 | 1.6 | 0.00 | 0.20 | 0.00 | 44 | 1018.3 | |
| 20260508144016 | 18 | 0.0 | 1.6 | 0.00 | 0.20 | 0.00 | 50 | 1018.2 | |
| 20260508143016 | 18 | 0.0 | 3.2 | 0.00 | 0.20 | 0.00 | 57 | 1018.2 | |
| 20260508142015 | 17 | 0.0 | 1.6 | 0.00 | 0.20 | 0.00 | 57 | 1018.2 | |
| 20260508141016 | 17 | 0.0 | 1.6 | 0.00 | 0.20 | 0.00 | 59 | 1018.1 | |
| 20260508140016 | 16 | 0.0 | 3.2 | 0.00 | 0.20 | 0.00 | 64 | 1018.1 | |
| 20260508135015 | 15 | 68 | 1.6 | 3.2 | 0.00 | 0.20 | 0.00 | 67 | 1018.1 |
| 20260508134016 | 15 | 0.0 | 4.8 | 0.00 | 0.20 | 0.00 | 76 | 1018.3 | |
| 20260508133036 | 13 | 0.0 | 0.0 | 0.00 | 0.20 | 0.00 | 86 | 1018.3 | |
| 20260508132015 | 12 | 0.0 | 1.6 | 0.00 | 0.20 | 0.00 | 99 | 1018.2 | |
| 20260508131055 | 12 | 0.0 | 0.0 | 0.00 | 0.20 | 0.00 | 99 | 1018.2 | |
| 20260508130016 | 11 | 0.0 | 0.0 | 0.00 | 0.20 | 0.00 | 99 | 1018.2 | |
| 20260508125035 | 9 | 0.0 | 0.0 | 0.00 | 0.20 | 0.00 | 99 | 1018.1 | |
| 20260508124016 | 8 | 0.0 | 0.0 | 0.00 | 0.20 | 0.00 | 99 | 1018.2 | |
| 20260508123016 | 7 | 0.0 | 1.6 | 0.00 | 0.20 | 0.00 | 99 | 1018.2 | |
| 20260508122035 | 7 | 0.0 | 0.0 | 0.00 | 0.20 | 0.00 | 99 | 1018.1 | |
| 20260508121015 | 6 | 0.0 | 0.0 | 0.00 | 0.20 | 0.00 | 99 | 1017.7 | |
| 20260508120015 | 6 | 0.0 | 0.0 | 0.00 | 0.20 | 0.00 | 98 | 1017.6 | |
| 20260508115036 | 5 | 0.0 | 0.0 | 0.00 | 0.20 | 0.00 | 98 | 1017.4 | |
| 20260508114016 | 4 | 0.0 | 0.0 | 0.00 | 0.20 | 0.00 | 98 | 1017.3 | |
| 20260508113116 | 3 | 0.0 | 0.0 | 0.00 | 0.20 | 0.00 | 97 | 1017.3 | |
| 20260508112015 | 3 | 0.0 | 0.0 | 0.00 | 0.20 | 0.00 | 97 | 1017.1 | |
| 20260508111036 | 3 | 0.0 | 0.0 | 0.00 | 0.20 | 0.00 | 97 | 1016.9 | |
| 20260508110016 | 3 | 0.0 | 0.0 | 0.00 | 0.20 | 0.00 | 97 | 1016.7 | |
| 20260508105015 | 3 | 0.0 | 0.0 | 0.00 | 0.20 | 0.00 | 97 | 1016.6 | |
| 20260508104015 | 3 | 0.0 | 0.0 | 0.00 | 0.20 | 0.00 | 97 | 1016.3 | |
| 20260508103015 | 4 | 0.0 | 0.0 | 0.00 | 0.20 | 0.00 | 97 | 1016.2 | |
| 20260508102015 | 4 | 0.0 | 0.0 | 0.00 | 0.20 | 0.00 | 97 | 1016.2 | |
| 20260508101015 | 4 | 0.0 | 0.0 | 0.00 | 0.20 | 0.00 | 97 | 1016.1 | |
| 20260508100015 | 4 | 0.0 | 0.0 | 0.00 | 0.20 | 0.00 | 97 | 1016.0 | |
| 20260508095015 | 5 | 0.0 | 0.0 | 0.00 | 0.20 | 0.00 | 97 | 1015.8 | |
| 20260508094035 | 5 | 0.0 | 0.0 | 0.00 | 0.20 | 0.00 | 97 | 1015.8 | |
| 20260508093015 | 5 | 0.0 | 0.0 | 0.00 | 0.20 | 0.00 | 97 | 1015.7 | |
| 20260508092015 | 5 | 0.0 | 0.0 | 0.00 | 0.20 | 0.00 | 97 | 1015.5 | |
| 20260508091016 | 5 | 0.0 | 0.0 | 0.00 | 0.20 | 0.00 | 98 | 1015.4 | |
| 20260508090015 | 5 | 0.0 | 0.0 | 0.00 | 0.20 | 0.00 | 98 | 1015.4 | |
| 20260508085055 | 4 | 0.0 | 0.0 | 0.00 | 0.20 | 0.00 | 98 | 1015.2 | |
| 20260508084015 | 4 | 0.0 | 0.0 | 0.00 | 0.23 | 0.00 | 97 | 1015.1 | |
| 20260508083015 | 3 | 0.0 | 0.0 | 0.00 | 0.23 | 0.00 | 97 | 1015.0 | |
| 20260508082015 | 3 | 0.0 | 0.0 | 0.00 | 0.23 | 0.00 | 97 | 1014.9 | |
| 20260508081015 | 3 | 0.0 | 0.0 | 0.00 | 0.23 | 0.00 | 96 | 1014.8 | |
| 20260508080016 | 4 | 0.0 | 0.0 | 0.00 | 0.23 | 0.00 | 96 | 1014.7 | |
| 20260508075015 | 4 | 0.0 | 0.0 | 0.00 | 0.23 | 0.00 | 97 | 1014.6 | |
| 20260508074035 | 4 | 0.0 | 0.0 | 0.00 | 0.23 | 0.00 | 97 | 1014.5 | |
| 20260508073035 | 4 | 0.0 | 0.0 | 0.00 | 0.23 | 0.00 | 97 | 1014.4 | |
| 20260508072015 | 5 | 0.0 | 0.0 | 0.00 | 0.23 | 0.00 | 96 | 1014.3 | |
| 20260508071055 | 5 | 0.0 | 0.0 | 0.00 | 0.23 | 0.00 | 96 | 1014.1 | |
| 20260508070016 | 5 | 0.0 | 0.0 | 0.00 | 0.23 | 0.00 | 96 | 1014.1 | |
| 20260508065016 | 5 | 0.0 | 0.0 | 0.00 | 0.23 | 0.00 | 96 | 1014.2 | |
| 20260508064015 | 5 | 0.0 | 0.0 | 0.00 | 0.23 | 0.00 | 96 | 1014.1 | |
| 20260508063015 | 5 | 0.0 | 0.0 | 0.00 | 0.23 | 0.00 | 96 | 1014.0 | |
| 20260508062015 | 5 | 0.0 | 0.0 | 0.00 | 0.23 | 0.00 | 96 | 1014.0 | |
| 20260508061015 | 6 | 0.0 | 0.0 | 0.00 | 0.23 | 0.00 | 96 | 1013.8 | |
| 20260508060055 | 6 | 0.0 | 0.0 | 0.00 | 0.23 | 0.00 | 96 | 1013.7 | |
| 20260508055015 | 6 | 0.0 | 0.0 | 0.00 | 0.23 | 0.00 | 96 | 1013.7 | |
| 20260508054016 | 6 | 0.0 | 0.0 | 0.00 | 0.23 | 0.00 | 96 | 1013.6 |